Starlink 3259

operational
NORAD ID: 50192 Int'l Des: 2021-125 Owner: SPXS Country: US Constellation: starlink
LEOCIRCULAR

About Starlink 3259

Description loading...

Live Position

Loading 3D Globe...

Upcoming Passes

Altitude History

Altitude vs Time

uPlot chart will show altitude changes over time

Two-Line Element Set

1 50192U 21125AN 26015.70791355 -.00000121 00000-0 10456-4 0 9994
2 50192 53.2179 116.9657 0001077 88.1164 271.9952 15.08836034228739
Epoch: Jan 15, 2026 • Age: 10 hours

Current Status

Altitude 545.1 km
Velocity 7.60 km/s
Sub-Earth Point 51.20°N, 24.24°E
Launch Date Dec 18, 2021
Age 4 years
Type internet

Technical Details

Classification Payload
Mass 290.00 kg
Dry Mass 270.00 kg
Total Mass 290.00 kg
Length 0.20 m
Diameter 2.80 m
Span 9.00 m
Shape Box + pan
Manufacturer SPXS
Bus Type Starlink
Phase Status In Orbit
Owner/State SPXS/US

Large Constellations

Loading constellations...